Regional Weather Roundup
Issued by NWS

Home | Current Version | Previous Version | Text Only | Print | Product List | Glossary On
Versions: 1 2 3 4 5 6 7 8 9 10 11 12 13 14 15 16 17 18 19 20 21 22 23 24 25 26 27 28 29 30 31 32 33 34 35 36 37 38 39 40 41 42 43 44 45 46 47 48 49 50
000
ASUS43 KMKX 300925
RWRWI

WISCONSIN REGIONAL WEATHER ROUNDUP
NATIONAL WEATHER SERVICE MILWAUKEE/SULLIVAN WI
400 AM CDT THU OCT 30 2014

NOTE: "FAIR" INDICATES FEW OR NO CLOUDS BELOW 12,000 FEET WITH NO
SIGNIFICANT WEATHER AND/OR OBSTRUCTIONS TO VISIBILITY.

WIZ001-002-006>008-014>016-023>028-301000-
NORTHWEST WISCONSIN

CITY           SKY/WX    TMP DP  RH WIND       PRES   REMARKS
SUPERIOR ARPT  CLOUDY    37  34  87 CALM      30.06F
ASHLAND        CLOUDY    39  32  76 W5        30.07S
HAYWARD        CLOUDY    38  32  79 CALM      30.05F
SIREN          CLOUDY    37  32  83 CALM      30.06R
CUMBERLAND     CLOUDY    32  32 100 CALM      30.06S
RICE LAKE      CLOUDY    33  32  96 CALM      30.08S
CHETEK         CLOUDY    33  32  96 CALM      30.07S
LADYSMITH      CLOUDY    36  33  90 CALM      30.07F
EAU CLAIRE     CLOUDY    35  32  88 CALM      30.06F
MENOMONIE      CLOUDY    36  34  93 CALM      30.08S
NEW RICHMOND   CLOUDY    36  34  92 CALM      30.06F
OSCEOLA        CLOUDY    36  36 100 CALM      30.09S
$$

WIZ003>005-009-010-017-018-301000-
NORTH CENTRAL WISCONSIN

CITY           SKY/WX    TMP DP  RH WIND       PRES   REMARKS
MANITOWISH WTR CLOUDY    35  33  91 CALM      30.03F
ARBOR VITAE    CLOUDY    37  32  85 CALM      30.03F
WOODRUFF       CLOUDY    37  32  85 CALM      30.03F
RHINELANDER    CLOUDY    36  31  82 W5        30.05S WCI  32
EAGLE RIVER    CLOUDY    36  31  80 W3        30.03S
LAND O LAKES   CLOUDY    36  32  85 W3        30.04S
PHILLIPS       CLOUDY    37  32  85 SW3       30.04S
TOMAHAWK       CLOUDY    35  32  88 CALM      30.05F
MEDFORD        MOCLDY    32  31  96 CALM      30.05F
MERRILL        MOCLDY    32  31  98 CALM      30.06S
$$

WIZ029-030-035-036-043>047-301000-
CENTRAL WISCONSIN

CITY           SKY/WX    TMP DP  RH WIND       PRES   REMARKS
WAUSAU         MOCLDY    32  31  96 CALM      30.06S
MOSINEE        MOCLDY    32  32 100 CALM      30.07F
MARSHFIELD     CLOUDY    33  31  92 SW7       30.06F WCI  27
STEVENS POINT  MOCLDY    29  28  97 CALM      30.09S
WAUPACA        MOCLDY    32  31  96 CALM      30.09S
WAUTOMA        MOCLDY    30  29  96 CALM      30.11R
WISC RAPIDS    MOCLDY    31  30  96 CALM      30.09F
CAMP DOUGLAS   CLOUDY    29  29 100 E2        30.08F
$$

WIZ011>013-019>022-031-037>040-048>050-301000-
NORTHEAST WISCONSIN

CITY           SKY/WX    TMP DP  RH WIND       PRES   REMARKS
ANTIGO         CLOUDY    34  32  93 W3        30.05F
SHAWANO        CLOUDY    37  34  88 SW3       30.09S
OCONTO         CLOUDY    36  35  95 CALM      30.07F
STURGEON BAY   CLOUDY    41  34  75 W3        30.08S
GREEN BAY      PTCLDY    36  34  92 CALM      30.09S
MANITOWOC      PTCLDY    39  35  86 W3        30.09F
APPLETON       MOCLDY    34  32  93 W8        30.08F WCI  27
CLINTONVILLE   MOCLDY    34  32  93 CALM      30.09S
OSHKOSH        MOCLDY    36  33  89 SW5       30.08F WCI  32
$$

WIZ032>034-041-042-053>061-301000-
SOUTHWEST WISCONSIN

CITY           SKY/WX    TMP DP  RH WIND       PRES   REMARKS
LA CROSSE      MOCLDY    37  33  85 SE5       30.08F WCI  33
SPARTA         MOCLDY    30  29  98 CALM      30.09F
VIROQUA        MOCLDY    37  33  87 S5        30.07F WCI  33
BOSCOBEL       MOCLDY    30  27  88 CALM      30.11F
PRAIRIE DU CHI PTCLDY    32  31  95 E3        30.10F
PLATTEVILLE    PTCLDY    33  31  93 SE5       30.11F WCI  29
$$

WIZ056-057-062-063-064-067-068-301000-
SOUTH CENTRAL WISCONSIN

CITY           SKY/WX    TMP DP  RH WIND       PRES   REMARKS
REEDSBURG      PTCLDY    30  29  98 CALM      30.09F
BARABOO/DELLS  PTCLDY    31  30  95 CALM      30.09F
LONE ROCK      PTCLDY    34  28  79 CALM      30.11F
MINERAL POINT  MOCLDY    34  32  93 CALM      30.09F
MADISON        CLOUDY    33  30  88 CALM      30.10F
MIDDLETON      CLOUDY    34  32  94 CALM      30.10F
WATERTOWN      MOCLDY    31  30  99 CALM      30.10S
MONROE         MOCLDY    34  32  93 SW7       30.10S WCI  28
JANESVILLE     MOCLDY    32  32 100 CALM      30.11F
$$

WIZ051-052-058>065-066-070>072-301000-
SOUTHEAST WISCONSIN

CITY           SKY/WX    TMP DP  RH WIND       PRES   REMARKS
MILWAUKEE      PTCLDY    36  30  79 CALM      30.11F
WAUKESHA       PTCLDY    32  30  93 CALM      30.11F
MILWAUKEE/TIMM CLEAR     32  30  93 CALM      30.11F
RACINE         PTCLDY    35  30  82 SW3       30.13F
BURLINGTON     PTCLDY    28  28  98 CALM      30.11F
KENOSHA        PTCLDY    32  30  92 S5        30.12F WCI  27
FOND DU LAC    PTCLDY    34  30  85 SW3       30.10S
SHEBOYGAN      PTCLDY    31  29  92 SW3       30.09F
WEST BEND      PTCLDY    32  30  93 CALM      30.10S
JUNEAU         MOCLDY    32  30  93 CALM      30.10F
$$

LSZ147-162-301000-
LAKE SUPERIOR

STATION/POSITION TIME  TEMP    WIND        PRES    WAVE
                       AIR SEA DIR/SP/G            HT/PER
                 (UTC) (F)     (DEG/KT/KT) (MB)    (FT/S)
W MID LAKE BUOY  0850   41 45  260/ 12/ 14 1017.3S   2/ 4
DEVILS ISLAND    0900   40     270/ 14/ 17 1018.2F
PORT WING        0800   40     210/  4/  9 1018.3S
SAXON HARBOR     0800   41        CALM     1017.6F
$$

LMZ867-665-643>646-301000-
LAKE MICHIGAN

STATION/POSITION TIME  TEMP    WIND        PRES    WAVE
                       AIR SEA DIR/SP/G            HT/PER
                 (UTC) (F)     (DEG/KT/KT) (MB)    (FT/S)
CHAMBERS ISLAND  0800   40     250/  1/  3 1018.6F
N MID LAKE BUOY  0850   44 51   CALM  /  2 1018.7F   0
NORTHPORT PIER   0800   42     190/  2/  3 1018.6S
KEWAUNEE LAKESHO 0900   41     310/  2/  3 1017.6F
SHEBOYGAN LAKESH 0900   39 50  250/  7/  7 1019.7F
PORT WASHINGTON  0800   38     270/  5/  7 1020.0F
ATWATER BUOY     0900   43     240/  8/ 10 1020.5F
MILWAUKEE LAKESH 0900   42     310/  1/  2   N/A
S MID LAKE BUOY  0850   47 53  280/  4/  6 1020.3F   2/ 5
KENOSHA   LAKESH 0900   39     250/  5/  8 1019.6F
$$

TC  - TEMPERATURE IN CELSIUS
VSB - VISIBILITY IN STATUTE MILES
WCI - WIND CHILL INDEX
HX  - HEAT INDEX




USA.gov is the U.S. government's official web portal to all federal, state and local government web resources and services.